Home   Weather   Reinach   Past weeks

Flag for Switzerland Past Weather in Reinach, Basel-Land, Switzerland — Yesterday and Last 2 Weeks

53 °F


Feels Like: 52 °F
Forecast: 43 / 57 °F
Wind: 3 mph from West

Location: Bale-Mulhouse

Current Time: Oct 26, 2016 at 9:28:10 PM

Latest Report: Oct 26, 2016 at 8:00 PM

Visibility: 4 mi

Pressure: 30.39 "Hg

Humidity: 93%

Dew Point: 51 °F

Location of ReinachLocation

Past Weather in Reinach — Graph


Reinach Temperature Yesterday

Maximum temperature yesterday: 60 °F (at 1:00 PM)
Minimum temperature yesterday: 53 °F (at 11:00 PM)
Average temperature yesterday: 56 °F

High & Low Weather Summary for the Past Weeks

High66 °F (Oct 16, 3:00 PM)100% (Oct 12, 6:00 AM)30.39 "Hg (Oct 12, 6:00 AM)
Low31 °F (Oct 13, 2:00 AM)49% (Oct 22, 4:00 PM)29.64 "Hg (Oct 14, 6:00 PM)
Average49 °F86%30.05 "Hg
* Reported Oct 11 8:00 PM — Oct 26 8:00 PM, Reinach, Weather by CustomWeather, © 2016

Note: Actual official high and low records may vary slightly from our data, if they occured in-between our weather recording intervals... More about our weather records


Reinach Weather History for the Previous 24 Hours

Scroll right to see more
Time TempWeatherWind HumidityBarometerVisibility
8:00 PM
Wed, Oct 26
53 °FOvercast.3 mph93%30.39 "Hg4 mi
7:00 PM53 °FOvercast.3 mph92%30.37 "Hg4 mi
6:00 PM54 °FLow clouds.2 mph92%30.36 "Hg4 mi
5:00 PM54 °FFog.3 mph93%30.35 "Hg3 mi
4:00 PM53 °FFog.6 mph93%30.36 "Hg3 mi
3:00 PM53 °FFog.3 mph93%30.34 "Hg3 mi
2:00 PM52 °FLow clouds.6 mph96%30.36 "Hg3 mi
1:00 PM52 °FLow clouds.6 mph96%30.36 "Hg3 mi
12:00 PM51 °FRain. Low clouds.7 mph97%30.35 "Hg3 mi
11:00 AM51 °FLight rain. Low clouds.5 mph97%30.35 "Hg2 mi
10:00 AM50 °FRain. Low clouds.5 mph97%30.34 "Hg2 mi
9:00 AM50 °FLight rain. Low clouds.6 mph97%30.32 "Hg1 mi
8:00 AM50 °FRain. Low clouds.2 mph97%30.31 "Hg1 mi
7:00 AM51 °FLight rain. Low clouds.7 mph96%30.29 "Hg1 mi
6:00 AM51 °FRain. Low clouds.5 mph97%30.29 "Hg1 mi
5:00 AM51 °FDrizzle. Low clouds.6 mph96%30.29 "Hg3 mi
4:00 AM51 °FLow clouds.7 mph95%30.29 "Hg4 mi
3:00 AM52 °FLow clouds.8 mph94%30.30 "Hg4 mi
2:00 AM52 °FLow clouds.5 mph92%30.29 "Hg7 mi
1:00 AM53 °FOvercast.5 mph92%30.29 "Hg8 mi
12:00 AM53 °FOvercast.5 mph90%30.28 "Hg8 mi
11:00 PM
Tue, Oct 25
53 °FOvercast.5 mph90%30.28 "Hg12 mi
10:00 PM54 °FOvercast.7 mph89%30.27 "Hg12 mi
9:00 PM54 °FOvercast.8 mph87%30.25 "Hg12 mi
Weather by CustomWeather, © 2016

See weather overviewHow to use our weather pages